Theta_e
314 315 316 317 318 319 318 318 318 320 320 319 319 321 321 321 312 297 294 305 309 320 320 300 302 310 312 307 309 310 298 293 294 295 295 296 295 298 298 294 294 295 293 297 299
312 313 315 317 318 318 318 318 320 320 320 319 319 318 320 319 296 292 306 315 315 319 303 297 296 304 303 305 304 303 297 296 299 299 294 294 294 296 293 292 292 291 294 296 296
311 312 313 315 317 317 318 319 318 318 319 318 315 312 316 313 289 288 309 311 312 313 303 299 297 300 300 303 304 302 295 299 299 302 302 296 295 295 294 289 290 288 290 292 292
310 311 312 314 316 316 317 318 318 316 318 317 316 312 308 293 280 291 309 308 310 305 301 298 296 293 296 297 303 298 302 301 300 302 302 298 298 293 292 290 293 292 292 291 290
309 310 311 314 315 316 317 317 318 317 314 313 312 309 294 285 286 295 306 299 299 300 297 296 294 292 293 296 298 297 298 301 300 303 300 297 293 292 291 294 294 292 291 290 290
308 309 310 312 314 315 315 316 316 316 312 312 310 305 290 282 294 295 293 294 296 298 296 293 294 294 291 290 291 298 291 291 298 295 294 291 289 291 290 293 290 290 289 289 289
308 308 310 311 314 314 313 314 315 313 314 312 308 294 288 285 294 293 292 292 295 295 292 293 293 294 292 290 292 291 284 285 286 290 292 294 285 284 289 289 287 287 288 288 288
307 307 309 310 311 312 313 313 312 312 310 309 303 289 284 293 296 293 292 293 296 295 292 292 292 289 288 290 287 285 285 279 284 288 291 291 280 286 288 287 285 286 286 286 287
306 306 308 309 310 312 312 309 310 310 308 305 290 286 281 296 289 291 289 288 292 293 291 292 288 284 285 283 280 280 276 277 279 287 287 287 280 285 287 285 284 284 284 285 285
306 306 307 308 309 312 312 313 306 301 295 293 291 283 285 284 288 290 289 290 290 288 286 284 282 280 279 279 273 275 274 275 275 282 284 281 280 282 284 283 282 283 283 284 284
305 305 306 308 308 308 300 294 286 286 287 282 283 283 285 289 290 287 288 287 286 283 276 280 276 272 273 275 276 274 274 273 274 281 281 279 279 279 281 281 281 281 281 282 283
305 305 306 306 307 304 294 287 286 287 281 286 286 285 287 287 282 285 288 282 279 275 276 275 273 276 278 278 276 275 274 273 276 282 281 280 277 279 280 280 281 281 281 282 283
304 304 305 306 303 296 290 290 295 292 280 283 285 284 285 286 281 281 283 282 278 276 274 272 273 278 277 276 276 274 273 273 275 280 281 280 275 276 279 280 280 280 281 281 281
303 303 304 305 295 290 288 292 295 292 276 278 282 284 285 284 280 285 283 281 278 276 274 274 276 276 276 274 275 274 276 276 276 275 270 282 264 274 276 276 277 278 278 279 280
303 302 302 298 288 287 290 292 294 288 266 280 281 288 284 280 280 281 283 282 275 275 275 273 274 273 273 274 276 275 277 276 277 274 271 272 266 271 275 274 273 275 277 278 280
302 301 298 290 287 287 290 292 287 275 264 277 280 279 278 279 279 280 278 280 278 277 276 274 276 274 273 276 276 277 277 277 275 273 262 268 268 268 273 275 274 274 276 278 279
301 300 293 289 284 288 291 286 276 268 276 274 276 278 276 275 277 276 274 272 270 269 269 274 273 275 276 274 276 275 271 258 260 258 261 270 265 270 274 274 274 275 275 277 278
300 296 293 290 288 291 287 281 267 266 271 279 277 277 274 275 275 274 273 269 272 270 266 265 267 272 276 273 271 273 269 261 256 259 261 269 262 268 276 276 276 276 276 277 277
299 287 285 290 289 289 283 269 270 272 278 276 276 272 272 274 273 272 270 269 272 271 264 263 268 274 276 275 273 270 267 272 256 250 256 264 271 275 276 274 274 274 274 274 276
285 284 284 290 290 284 278 272 273 279 278 278 274 273 267 270 270 269 269 272 273 275 274 268 264 273 275 275 275 273 274 263 258 254 253 261 263 265 274 275 275 273 273 275 276
285 281 285 290 285 280 273 267 278 278 278 277 273 272 272 271 270 267 268 273 273 273 275 271 266 269 273 270 268 269 269 267 263 261 254 254 263 267 272 276 275 272 275 275 277
282 277 286 286 278 260 266 271 280 276 277 277 277 275 273 272 270 269 269 273 277 275 269 273 262 260 266 271 271 272 268 267 258 257 261 261 262 275 275 275 274 275 277 276 277
280 278 284 284 272 262 272 276 276 275 276 276 275 276 274 272 266 271 269 275 277 275 271 272 262 255 263 267 271 268 271 270 263 260 256 256 262 273 274 273 275 275 276 276 277
279 275 277 278 276 275 268 269 270 277 276 277 275 275 273 271 272 264 269 275 277 275 281 275 264 262 262 264 265 265 267 266 262 254 260 262 265 270 273 273 274 275 276 275 276
278 275 278 270 271 274 274 270 268 270 275 275 274 273 272 263 268 263 269 273 275 278 276 269 259 262 263 267 267 268 269 268 264 264 260 266 265 270 273 273 275 276 277 277 276
278 277 275 271 276 275 273 272 271 273 273 272 272 274 272 266 271 266 270 271 271 273 273 272 258 261 257 264 266 267 269 269 270 270 268 268 268 274 275 275 275 276 276 276 276
281 282 280 273 275 272 273 274 275 275 275 276 274 273 272 273 275 274 275 275 274 272 268 265 260 255 255 261 258 260 264 268 269 269 269 265 270 271 271 273 274 275 276 276 277
Wind_Speed
16 16 15 15 15 15 15 14 12 9 6 5 6 7 9 9 6 12 17 12 15 21 15 6 4 5 4 5 5 2 4 7 6 1 7 11 7 10 12 19 25 11 12 12 17
16 16 16 16 15 15 15 15 13 10 5 4 5 8 7 5 5 12 15 29 28 23 6 7 8 6 5 3 4 4 4 5 6 4 16 18 20 6 14 23 15 19 17 16 15
17 17 15 15 14 14 14 15 14 13 7 3 5 13 4 0 6 8 27 31 27 20 3 2 3 3 6 3 4 3 5 10 8 8 8 14 27 15 5 18 16 17 18 20 23
18 17 15 15 14 13 14 15 16 16 14 6 7 9 14 6 5 8 29 29 23 12 4 7 7 6 5 6 3 9 11 10 4 4 4 6 12 22 22 14 14 16 16 21 26
17 16 15 15 12 12 12 12 12 12 10 13 11 9 8 9 5 15 27 22 9 8 9 5 7 4 6 5 14 11 13 14 11 12 21 26 20 17 17 13 14 17 23 23 21
17 15 14 13 11 13 14 11 9 10 5 10 15 9 8 14 9 12 15 11 9 7 7 8 4 4 7 4 6 5 17 14 11 19 15 25 18 10 12 10 18 22 21 19 21
16 16 15 13 9 12 16 13 10 10 8 6 9 5 17 6 9 11 12 5 8 6 5 6 2 6 2 11 4 11 16 17 14 5 8 10 21 15 10 12 18 18 17 18 19
17 16 14 11 12 13 13 11 9 15 13 10 12 7 7 2 9 25 15 8 9 7 5 9 7 8 7 2 7 6 6 6 9 11 6 7 8 12 10 12 16 16 14 15 17
16 15 14 12 13 10 8 17 9 10 13 6 10 8 7 15 16 12 5 7 8 7 10 5 8 7 10 5 6 9 4 6 4 17 2 8 9 9 9 12 14 12 12 12 13
15 13 12 13 13 7 6 0 13 14 8 3 6 6 9 9 7 10 8 8 7 6 10 14 10 7 8 8 2 2 5 7 6 8 18 18 12 7 7 10 10 9 10 11 12
14 13 11 10 8 9 4 4 7 12 13 9 3 5 5 10 4 15 8 9 9 13 9 14 16 9 7 6 5 6 5 7 3 2 9 9 10 6 6 7 8 8 8 9 9
14 13 11 3 13 10 7 6 2 6 9 5 2 3 4 4 8 25 15 11 12 11 3 8 14 8 4 5 8 8 5 5 0 6 7 8 7 5 4 4 5 6 7 7 7
16 14 12 1 4 9 6 4 4 3 8 5 3 5 5 7 7 13 9 4 7 15 16 12 4 7 4 11 8 5 6 3 4 2 7 7 4 4 2 4 5 6 5 6 7
15 14 13 2 9 3 4 2 3 1 8 14 10 7 8 6 7 4 6 2 8 3 3 9 5 5 7 7 5 3 3 1 4 4 3 0 4 3 4 3 4 5 6 6 6
14 13 15 8 7 4 3 2 2 4 7 9 8 5 7 10 5 13 5 8 9 6 4 1 8 8 7 4 5 1 3 3 2 4 4 5 5 5 5 3 3 3 5 6 6
11 14 4 6 5 1 2 1 4 12 4 4 4 8 6 9 8 8 9 8 2 8 8 4 3 4 3 4 2 6 2 5 4 3 4 4 5 4 5 5 4 1 2 5 6
7 14 7 2 3 1 2 4 10 9 4 5 4 5 4 7 8 10 6 11 6 6 8 5 4 5 4 5 5 9 7 5 7 7 5 2 4 7 4 3 5 4 3 5 6
3 5 5 3 2 3 3 9 9 4 5 0 1 1 5 6 5 8 4 6 7 6 4 4 6 8 10 4 2 5 4 6 4 2 5 6 5 5 5 5 4 4 3 5 7
5 3 3 5 1 3 7 8 10 8 5 7 3 3 4 2 3 5 6 2 4 4 7 4 1 4 3 3 2 5 6 3 9 1 4 4 7 1 5 4 5 5 2 5 6
3 3 2 6 2 5 9 5 3 1 4 2 4 3 3 3 3 5 1 2 1 4 2 3 3 2 4 2 6 6 4 3 5 2 5 5 6 6 6 8 6 4 5 8 8
5 4 3 3 3 8 5 6 4 2 1 3 4 4 2 3 3 2 2 2 1 2 4 3 4 3 2 5 1 4 2 6 5 4 6 1 8 7 4 5 7 5 6 9 10
4 3 2 1 8 1 4 7 4 4 1 2 4 3 4 4 3 3 3 3 3 3 3 1 5 1 1 5 4 2 4 4 7 5 1 3 11 2 4 5 3 4 10 9 9
4 2 3 3 5 1 3 2 2 4 4 4 3 2 2 4 4 1 2 0 4 3 5 5 1 4 8 7 5 2 4 5 5 4 6 7 9 2 5 5 6 8 10 9 10
4 2 6 6 2 10 8 3 3 1 4 3 5 4 4 3 3 6 3 4 4 3 7 5 2 7 8 7 4 3 3 4 7 5 4 11 7 13 12 12 12 12 11 8 10
4 3 2 3 3 4 4 6 6 6 2 4 2 5 7 4 2 3 2 3 1 5 3 6 3 2 3 6 3 8 11 9 9 6 8 6 9 15 15 12 12 13 15 12 12
6 6 2 2 3 7 1 8 11 5 10 5 5 9 6 8 9 10 8 5 6 4 5 1 2 3 5 5 3 11 16 15 15 18 19 22 25 23 21 16 13 14 12 11 11
1 2 5 2 3 5 7 8 10 11 3 2 8 7 5 6 5 1 3 4 6 8 5 6 6 4 7 4 6 10 11 14 8 6 15 15 15 4 7 9 11 13 11 10 11
Wind_Direction
23 21 22 24 21 21 20 10 13 13 4 343 331 320 316 331 333 27 43 334 331 331 329 310 11 17 53 65 42 14 104 152 163 70 81 1 45 49 61 70 54 60 49 10 1
20 17 19 18 18 18 13 5 6 7 10 27 353 323 281 323 33 35 348 344 339 339 358 10 357 14 57 71 58 48 117 114 77 95 92 57 46 40 50 35 37 36 33 27 23
20 15 11 15 15 16 18 15 8 12 22 84 67 27 359 46 56 321 340 337 334 332 249 304 328 47 54 47 11 42 86 103 74 92 130 89 61 41 52 46 34 29 20 24 31
19 12 8 12 12 17 13 15 8 24 40 33 15 7 37 43 60 303 334 330 329 331 46 16 25 49 63 50 359 95 69 81 63 38 87 62 84 63 56 65 50 41 34 35 33
19 12 7 8 4 8 0 10 12 13 37 47 42 28 52 42 3 308 327 327 335 359 35 31 41 50 62 72 70 77 77 85 108 76 75 68 74 74 53 52 50 45 41 35 35
19 11 7 2 7 31 23 9 25 24 10 30 24 20 81 58 300 321 324 323 359 5 14 37 14 33 68 80 74 113 81 64 105 87 83 76 53 49 44 53 54 52 45 42 41
19 10 5 357 5 26 16 17 26 21 29 26 42 74 57 31 323 321 355 316 332 359 26 354 357 71 91 79 23 107 94 61 19 7 137 113 46 55 42 60 62 56 51 45 36
17 4 358 358 1 360 4 32 33 55 29 73 37 62 74 312 300 12 346 342 356 17 29 7 52 86 46 346 35 39 51 64 13 0 11 75 59 51 50 61 60 54 47 45 38
18 1 348 358 0 347 352 35 41 47 41 26 37 80 358 330 8 326 6 325 302 343 23 24 56 65 18 45 37 21 71 39 30 7 91 75 101 56 42 55 58 49 44 41 38
15 358 344 346 356 332 351 293 39 33 358 28 77 35 11 315 314 320 327 355 26 348 14 23 44 57 29 32 84 0 90 61 52 4 66 81 91 63 49 62 59 50 45 38 35
10 358 347 347 17 21 37 10 21 6 27 88 287 96 277 302 326 356 343 348 20 56 43 21 58 34 335 28 95 95 80 92 38 63 64 78 89 67 40 52 52 43 37 37 29
9 2 347 354 54 51 69 71 50 165 80 32 51 15 309 334 12 356 5 58 40 47 15 45 48 333 308 36 66 50 88 24 340 20 82 115 91 83 52 42 44 37 29 20 9
6 0 353 54 78 52 71 86 312 344 82 29 44 32 340 6 47 338 21 13 65 49 53 77 305 315 44 33 30 51 77 356 112 54 50 143 134 140 67 77 56 38 23 15 3
9 4 8 129 50 133 54 311 340 21 76 337 350 12 356 330 58 353 17 31 40 89 68 71 338 27 36 59 8 63 31 194 148 106 161 240 269 222 175 109 59 37 24 10 2
10 10 45 57 138 69 147 323 321 56 54 322 327 294 353 68 300 356 2 26 64 12 79 351 358 8 30 358 350 235 340 153 116 96 88 341 71 276 151 184 134 47 15 351 349
10 15 108 34 53 72 349 347 46 44 261 2 336 352 21 15 10 315 17 32 70 60 45 56 9 47 304 303 315 294 140 48 52 62 38 258 117 260 202 196 147 134 327 315 321
17 31 52 81 134 128 71 47 38 101 319 300 343 9 81 6 5 17 30 37 43 57 13 352 19 331 24 352 5 24 43 351 2 14 203 319 38 243 210 158 158 194 250 289 304
57 62 30 66 125 114 70 51 73 242 223 130 354 37 71 11 26 4 43 34 28 43 71 57 350 9 340 61 297 25 99 133 209 317 282 327 252 264 191 161 173 206 255 306 334
125 24 42 346 95 72 77 56 193 201 148 145 71 67 360 31 100 54 37 70 5 36 114 82 64 331 13 10 61 306 46 144 104 87 40 278 285 22 126 185 214 221 294 309 322
93 70 7 316 110 72 72 191 160 192 115 111 151 141 171 301 61 60 16 270 96 27 130 199 59 22 305 347 23 83 144 47 8 51 309 301 279 245 219 222 245 274 310 313 305
59 63 262 345 63 48 132 202 163 119 136 135 162 123 160 140 96 132 193 275 184 65 68 115 101 284 23 25 0 356 41 56 109 111 160 284 269 217 238 222 226 252 304 297 302
105 49 304 45 54 6 119 172 136 147 71 107 105 113 152 158 117 133 179 193 144 129 106 84 138 109 172 285 246 241 185 121 116 266 197 151 272 264 240 231 202 285 293 286 286
112 212 321 96 128 336 292 94 130 135 170 154 120 111 113 145 89 175 172 185 145 137 167 190 345 20 347 353 345 210 187 117 99 72 209 141 260 189 263 282 257 283 290 297 296
91 49 334 48 38 132 141 189 132 62 141 131 118 102 96 112 49 185 184 200 172 136 129 94 106 164 190 202 153 256 215 157 130 123 198 233 278 286 278 284 293 296 294 288 286
36 231 238 221 303 114 102 124 138 167 160 152 106 188 158 119 71 201 252 153 149 202 100 115 177 129 267 242 242 246 243 193 198 175 182 245 221 259 270 282 282 284 285 286 284
134 137 359 128 95 106 273 217 162 174 148 220 201 173 163 153 184 192 145 188 192 157 145 115 244 89 309 336 332 269 257 237 229 232 241 255 271 266 272 274 268 264 270 266 268
203 66 106 294 113 100 207 179 191 140 247 191 155 121 178 210 165 202 112 136 170 147 145 134 125 77 270 331 328 296 246 209 187 198 214 226 234 252 253 252 248 254 257 255 270